Location: Staunton
(38.1490°N, 79.0720°W)
Time: 00:04:33
(UTC-05:00)

ISS - Pass Details

Date: 05 December 2019
Orbit: 411 x 421 km, 51.6° (Epoch: 15 December)

Event Time Altitude Azimuth Distance (km) Brightness Sun altitude
Rises 17:49:30 0° 319° (NW) 2,358 0.3 -10.4°
Reaches altitude 10° 17:52:47 10° 354° (N) 1,496 -1.1 -11.0°
Maximum altitude 17:54:03 12° 16° (NNE) 1,399 -1.4 -11.2°
Enters shadow 17:54:45 11° 29° (NNE) 1,429 -1.5 -11.4°
